Regional Weather Roundup
Issued by NWS New Orleans/Baton Rouge, LA

Home | Current Version | Previous Version | Text Only | Print | Product List | Glossary On
Versions: 1 2 3 4 5 6 7 8 9 10 11 12 13 14 15 16 17 18 19 20 21 22 23 24 25 26 27 28 29 30 31 32 33 34 35 36 37 38 39 40 41 42 43 44 45 46 47 48 49 50
823
ASUS44 KLIX 280501
RWRLIX
NEW ORLEANS REGIONAL WEATHER ROUNDUP
NATIONAL WEATHER SERVICE NEW ORLEANS LA
1100 PM CST FRI FEB 27 2015

NOTE: "FAIR" INDICATES FEW OR NO CLOUDS BELOW 12,000 FEET WITH NO
      SIGNIFICANT WEATHER AND/OR OBSTRUCTIONS TO VISIBILITY.
      SKY/WX - SKY CONDITION AND SIGNIFICANT WEATHER.
      TMP - AIR TEMPERATURE.     DP    - DEWPOINT TEMPERATURE.
      RH  - RELATIVE HUMIDITY.   PRES  - PRESSURE.
      HI  - HEAT INDEX.          WCI   - WIND CHILL INDEX.

*  THESE STATIONS ARE NOT NWS OR FAA STATIONS AND ARE NOT UNDER
   NWS QUALITY CONTROL.

LAZ038-040-048-061>063-065>067-069-280600-
SOUTHEAST LOUISIANA

CITY           SKY/WX    TMP DP  RH WIND       PRES   REMARKS
N.O. AUDUBON     N/A     47  36  64 MISG        N/A
N.O. INTL ARPT PTCLDY    47  33  58 NE12      30.40S
N.O. LAKEFRONT CLEAR     49  34  56 NE18      30.40F
SLIDELL        CLEAR     37  32  82 N5        30.40S WCI  33
BATON ROUGE    CLEAR     38  30  73 N7        30.43S WCI  33
BOOTHVILLE     PTCLDY    51  41  68 NE12      30.37S
BELLE CHASSE   PTCLDY    46  31  55 N5        30.39S
BOGALUSA*        N/A     37  31  80 N5        30.43F WCI  33
GALLIANO*      PTCLDY    43  37  78 NW5       30.40S
NEW ROADS*     NOT AVBL
GONZALES*      NOT AVBL
HAMMOND*       NOT AVBL
HOUMA*         CLEAR     40  34  80 N6        30.40S
PORT FOURCHON* NOT AVBL

$$

MSZ070-080>082-280600-
SOUTHERN MISSISSIPPI

CITY           SKY/WX    TMP DP  RH WIND       PRES   REMARKS
MCCOMB         CLEAR     37  28  70 N6        30.43R WCI  32
GULFPORT       CLEAR     44  28  53 NE8       30.39F
BILOXI         CLEAR     43  30  59 NE12      30.38F
PASCAGOULA     PTCLDY    43  29  57 NE9       30.39F

$$

COASTAL OBSERVATIONS
LAKE AND NEARSHORE STATIONS

STATION/POSITION TIME  TEMP    WIND        PRES    WAVE
                       AIR SEA DIR/SP/G            HT/PER
                 (UTC) (F)     (DEG/KT/KT) (MB)    (FT/S)
PASCAGOULA       0400   45      20/ 11/ 15 1028.5
WAVELAND YACHT   0400   45 49   50/ 16/ 18 1028.6
GRAND ISLE       0400   49 54   40/ 11/ 16 1029.1
SOUTHWEST PASS   0400   52 47   20/ 15/ 17 1028.1
NEW CANAL        0400   48      40/ 15/ 17 1029.4
SHELL BEACH      0400   48 50   30/ 17/ 19 1028.6

OFFSHORE STATIONS

STATION/POSITION TIME  TEMP    WIND        PRES    WAVE
                       AIR SEA DIR/SP/G            HT/PER
                 (UTC) (F)     (DEG/KT/KT) (MB)    (FT/S)
64 S DAUPHIN ISL 0444   59 69   50/ 19/ 23 1027.5    5/ 6

$$




USA.gov is the U.S. government's official web portal to all federal, state and local government web resources and services.